INTELSAT 26 (IS-26)

Last updated on Jan. 27, 2020, 4:38 a.m. UTC

1 24732U 97007A   20026.14315147 -.00000002  00000-0  00000-0 0  9990
2 24732   8.8389  43.8400 0003408 300.4425 255.7714  1.00272290 49331
UTC
Height (km)
Latitude
Longitude
Inclination
Orbital Period
UTC large
Height (km)
Speed (km/s)
/
Latitude / Longitude
Inclination (degrees)
Orbital Period (minutes)
Azimuth
Elevation
Range (km)
Doppler Factor
iOS Compass Heading
iOS Angle

Next 30 passes for location: Hong Kong

Rise time Rise Azimuth (degrees) Set time Set Azimuth (degrees) Duration Max altitude (degrees)

No matching passes for this satellites